Location: Hamilton
(37.7830°S, 175.2830°E)
Time: 13:55:11
(UTC+12:00)

Daily predictions for brighter satellites

Satellite Brightness Start Highest point End
(mag) Time Altitude Azimuth Time Altitude Azimuth Time Altitude Azimuth
Cosmos 1633 4.0 17:41:36 10° NE 17:44:13 19° E 17:46:52 10° SE
SL-16 R/B 3.5 17:40:19 10° NNE 17:44:26 21° E 17:48:35 10° SE
USA 234 3.4 17:38:43 10° SE 17:45:18 66° NE 17:51:49 10° NW
Cosmos 1354 Rocket 4.0 17:40:04 10° SSW 17:45:23 74° ESE 17:50:39 10° NNE
Cosmos 1076 Rocket 4.1 17:42:41 10° NNE 17:46:39 37° E 17:50:40 10° SSE
Cosmos 1606 3.7 17:46:14 10° SSE 17:49:26 25° ESE 17:52:34 10° NE
CZ-4B R/B 1.4 17:46:44 10° NNE 17:49:41 47° ESE 17:52:44 10° S
IRIDIUM 104 4.4 17:45:15 10° S 17:50:32 66° E 17:55:44 10° NNE
Atlas Centaur 2 3.3 17:46:19 10° WNW 17:50:46 35° N 17:56:16 10° ENE
Cosmos 2151 4.2 17:48:05 10° NE 17:51:22 22° E 17:54:40 10° SE
Meteor PRIRODA 3.7 17:52:36 10° SSE 17:56:25 88° WSW 18:00:08 10° NNW
IRIDIUM 114 4.3 17:54:23 10° S 17:59:42 81° E 18:04:57 10° N
Cosmos 1437 Rocket 3.2 17:56:27 10° S 18:00:02 36° ESE 18:03:34 10° NE
ERS-2 3.8 17:59:11 10° E 18:01:13 14° ESE 18:03:16 10° SSE
Cosmos 2292 Rocket 4.4 17:58:21 10° NNE 18:02:16 36° E 18:07:21 10° SSE
Cosmos 1356 4.0 17:59:26 10° NNW 18:02:49 60° W 18:06:16 10° S
ATLAS CENTAUR Rocket 3.8 18:00:39 10° NW 18:03:53 18° N 18:06:35 10° ENE
Cosmos 1242 Rocket 4.0 18:02:33 10° SSE 18:05:18 19° ESE 18:07:59 10° ENE
ATLAS 3B R/B 3.4 17:58:51 10° NW 18:06:16 61° SW 18:13:36 10° SSE
Cosmos 2333 Rocket 4.4 18:02:19 10° WNW 18:06:34 21° SW 18:10:52 10° S
deb Chang Zheng 4 3.6 18:02:24 10° SSE 18:06:48 65° ENE 18:11:07 10° N
Cosmos 2058 3.7 18:03:04 10° NNW 18:07:06 55° W 18:11:15 10° S
Meteor 2-15 4.4 18:01:32 10° S 18:07:42 85° E 18:13:46 10° N
Envisat 3.4 18:03:37 10° S 18:08:44 67° WSW 18:13:47 10° NNW
IRIDIUM 103 4.5 18:03:30 10° S 18:08:49 83° W 18:14:03 10° N
Cosmos 2237 Rocket 2.5 18:06:48 10° NNW 18:12:27 72° WSW 18:18:12 10° SSE
H-2A R/B 4.4 18:10:18 10° S 18:13:51 35° WSW 18:17:18 10° NW
SJ 16-02 2.3 18:10:54 10° S 18:14:40 26° ESE 18:18:24 10° ENE
SMAP 3.4 18:10:44 10° SSE 18:15:16 45° E 18:19:45 10° N
Cosmos 1943 Rocket 3.5 18:17:00 10° S 18:20:53 18° SE 18:21:53 18° ESE
NOAA 6 4.0 18:16:27 10° SSE 18:21:38 67° ENE 18:26:44 10° N
H-2A R/B 3.6 18:21:39 19° E 18:21:51 20° E 18:24:42 10° NE
Cosmos 1689 Rocket 2.7 18:19:51 10° NE 18:22:27 31° ESE 18:25:06 10° S
Cosmos 1553 Rocket 4.0 18:17:27 10° S 18:23:29 55° E 18:29:26 10° NNE
Cosmos 1763 Rocket 4.4 18:21:42 10° NNE 18:26:06 27° E 18:28:30 20° ESE
Hubble Space Telescope 3.0 18:33:20 10° NNW 18:35:35 14° NNE 18:37:25 11° NE
Okean O Rocket 2.2 18:34:14 21° SE 18:36:42 36° E 18:40:50 10° NNE
PSLV R/B 3.8 18:33:57 10° S 18:37:46 77° WSW 18:41:28 10° NNW
Lacrosse 5 2.2 18:35:01 10° SSW 18:39:59 47° SE 18:42:25 27° E
Cosmos 2278 Rocket 2.9 18:34:46 10° SSW 18:40:23 59° WNW 18:45:56 10° N
Cosmos 2369 Rocket 4.1 18:40:36 10° SSE 18:41:48 13° SSE 18:41:48 13° SSE
Cosmos 1777 Rocket 4.3 18:39:01 10° SSW 18:44:18 69° WNW 18:49:30 10° N
MOS 1-B 4.3 18:40:17 10° SSE 18:46:11 78° ENE 18:52:00 10° N
BREEZE-M DEB (TANK) 3.8 18:44:33 10° NNW 18:47:10 30° NE 18:47:27 29° ENE
Cosmos 1933 3.5 18:43:10 10° S 18:47:13 49° E 18:51:12 10° NNE
Meteor 2-21 Rocket 4.5 18:42:04 10° N 18:48:09 59° E 18:54:19 10° SSE
CZ-2C R/B 3.5 18:44:36 10° N 18:50:06 54° W 18:55:38 10° SSW
CZ-4B R/B 3.1 18:45:07 10° SSE 18:50:25 58° ENE 18:55:38 10° N
Cosmos 468 Rocket 4.1 18:49:50 10° N 18:55:00 54° ENE 18:57:19 31° SE
Okean 3 Rocket 3.7 18:53:35 10° NNE 18:57:50 48° E 18:57:59 48° E
Meteor 2-3 Rocket 3.6 18:55:24 10° N 19:01:01 88° E 19:06:47 10° S
Cosmos 1655 Rocket 3.9 18:55:26 10° N 19:01:45 83° E 19:08:13 10° S
H-2A R/B 3.7 19:06:48 17° NNE 19:06:48 17° NNE 19:08:09 10° NNE
Cosmos 1766 Rocket 3.6 18:59:28 10° N 19:03:53 59° E 19:04:23 55° ESE
PAYLOAD B 4.5 19:00:39 10° S 19:06:16 70° WSW 19:11:47 10° NNW
Cosmos 1461 3.4 19:02:38 10° SW 19:06:59 63° WNW 19:11:30 10° NNE
ATLAS CENTAUR R/B 3.0 19:16:41 10° SSW 19:18:32 24° S 19:18:32 24° S
Cosmos 1939 Rocket 3.9 19:17:53 15° S 19:21:10 47° WSW 19:25:10 10° NNW
Lacrosse 5 rocket 3.2 19:21:47 10° NNW 19:24:00 25° N 19:24:00 25° N
Cosmos 883 Rocket 4.3 19:20:47 10° S 19:27:04 77° E 19:33:19 10° N
USA 234 4.3 19:24:16 21° SSE 19:28:01 38° SSW 19:33:59 10° W
SL-16 R/B 3.0 19:22:38 10° NW 19:28:07 49° WSW 19:32:00 19° S
CZ-2C R/B 3.3 19:25:08 18° S 19:28:35 58° WSW 19:33:17 10° NNW
ERS-2 3.8 19:31:03 10° NNW 19:34:24 33° W 19:37:48 10° SSW
Atlas Centaur 2 4.1 19:34:58 10° WNW 19:39:26 23° NNW 19:41:59 18° NNE
Cosmos 2297 3.9 19:39:54 10° SSW 19:45:41 71° WNW 19:46:44 57° NNW
SJ 16-02 3.5 19:49:28 10° SW 19:53:07 25° W 19:56:44 10° NNW
Cosmos 1943 Rocket 3.0 19:59:27 10° SSW 20:03:29 45° SW 20:03:29 45° SW
Cosmos 1607 4.3 20:01:40 10° SW 20:07:09 60° W 20:07:09 60° W
Okean O Rocket 4.0 20:11:42 18° SW 20:12:46 20° WSW 20:16:01 10° WNW
Lacrosse 5 3.9 20:18:28 10° WSW 20:21:42 25° WNW 20:21:42 25° WNW
